When you browse on this site, cookies collect data to enhance your experience and personalize the content and advertising you see.
Visit our Privacy Policy to learn more. By continuing to use the site, you agree to this use of cookies and data.
  • In United Kingdom
  • List of Countries
  • For 7 days
  • Water Temperature
  • Weather Map
  • Weather Widgets
  • user-avatar
    Login

    Hourly Weather Leipzig

    Today, 25 August, Sunday

    Time Temperature Precipitation Wind Pressure Humidity
    00:00 +21°C° 0 mm 3 mps 754 mmHg 84%
    01:00 +20°C° 0 mm 3 mps 754 mmHg 86%
    02:00 +20°C° 0 mm 2 mps 754 mmHg 87%
    03:00 +19°C° 0 mm 2 mps 754 mmHg 89%
    04:00 +19°C° 0 mm 2 mps 754 mmHg 90%
    05:00 +20°C° 0 mm 2 mps 754 mmHg 87%
    06:00 +21°C° 0 mm 2 mps 754 mmHg 84%
    07:00 +21°C° 0 mm 2 mps 754 mmHg 80%
    08:00 +25°C° 0 mm 2 mps 754 mmHg 72%
    09:00 +27°C° 0 mm 3 mps 754 mmHg 63%
    10:00 +29°C° 0 mm 3 mps 754 mmHg 54%
    11:00 +30°C° 0 mm 3 mps 754 mmHg 50%
    12:00 +31°C° 0 mm 3 mps 754 mmHg 46%
    13:00 +33°C° 0 mm 3 mps 754 mmHg 41%
    14:00 +34°C° 0 mm 3 mps 753 mmHg 41%
    15:00 +34°C° 0 mm 4 mps 753 mmHg 41%
    16:00 +34°C° 0 mm 4 mps 753 mmHg 40%
    17:00 +31°C° 0 mm 3 mps 753 mmHg 46%
    18:00 +30°C° 0 mm 3 mps 753 mmHg 52%
    19:00 +28°C° 0 mm 3 mps 753 mmHg 58%
    20:00 +27°C° 0.1 mm 3 mps 753 mmHg 64%
    21:00 +25°C° 0.1 mm 3 mps 753 mmHg 70%
    22:00 +24°C° 0.1 mm 3 mps 753 mmHg 76%
    23:00 +23°C° 0 mm 2 mps 753 mmHg 78%

    Tomorrow, 26 August, Monday

    Time Temperature Precipitation Wind Pressure Humidity
    00:00 +23°C° 0 mm 2 mps 753 mmHg 80%
    01:00 +21°C° 0 mm 2 mps 753 mmHg 83%
    02:00 +21°C° 0 mm 2 mps 753 mmHg 84%
    03:00 +22°C° 0 mm 1 mps 753 mmHg 85%
    04:00 +21°C° 0 mm 1 mps 753 mmHg 86%
    05:00 +22°C° 0 mm 1 mps 753 mmHg 83%
    06:00 +22°C° 0 mm 1 mps 753 mmHg 80%
    07:00 +23°C° 0 mm 1 mps 753 mmHg 78%
    08:00 +25°C° 0 mm 2 mps 753 mmHg 71%
    09:00 +27°C° 0 mm 2 mps 753 mmHg 64%
    10:00 +29°C° 0 mm 2 mps 753 mmHg 57%
    11:00 +30°C° 0 mm 2 mps 753 mmHg 52%
    12:00 +31°C° 0 mm 2 mps 753 mmHg 46%
    13:00 +34°C° 0 mm 2 mps 753 mmHg 41%
    14:00 +34°C° 0 mm 3 mps 752 mmHg 39%
    15:00 +34°C° 0 mm 3 mps 752 mmHg 38%
    16:00 +35°C° 0 mm 3 mps 752 mmHg 36%
    17:00 +33°C° 0 mm 3 mps 752 mmHg 43%
    18:00 +30°C° 0 mm 3 mps 752 mmHg 49%
    19:00 +28°C° 0 mm 3 mps 752 mmHg 56%
    20:00 +27°C° 0.2 mm 3 mps 752 mmHg 60%
    21:00 +26°C° 0.2 mm 2 mps 752 mmHg 64%
    22:00 +25°C° 0.2 mm 2 mps 752 mmHg 69%
    23:00 +24°C° 0.1 mm 2 mps 752 mmHg 71%

    Day after tomorrow, 27 August, Tuesday

    Time Temperature Precipitation Wind Pressure Humidity
    00:00 +24°C° 0.1 mm 2 mps 752 mmHg 72%
    01:00 +23°C° 0.1 mm 1 mps 752 mmHg 74%
    02:00 +23°C° 0 mm 1 mps 752 mmHg 75%
    03:00 +22°C° 0 mm 1 mps 752 mmHg 76%
    04:00 +22°C° 0 mm 1 mps 752 mmHg 77%
    05:00 +23°C° 0 mm 1 mps 752 mmHg 75%
    06:00 +23°C° 0 mm 1 mps 752 mmHg 73%
    07:00 +24°C° 0 mm 1 mps 752 mmHg 70%
    08:00 +26°C° 0 mm 1 mps 752 mmHg 64%
    09:00 +28°C° 0 mm 1 mps 752 mmHg 57%
    10:00 +30°C° 0 mm 2 mps 752 mmHg 50%
    11:00 +31°C° 0 mm 2 mps 752 mmHg 46%
    12:00 +32°C° 0 mm 2 mps 752 mmHg 43%
    13:00 +34°C° 0 mm 2 mps 752 mmHg 39%
    14:00 +34°C° 0 mm 2 mps 752 mmHg 39%
    15:00 +34°C° 0 mm 2 mps 751 mmHg 38%
    16:00 +35°C° 0 mm 3 mps 751 mmHg 38%
    17:00 +33°C° 0 mm 3 mps 751 mmHg 44%
    18:00 +30°C° 0 mm 2 mps 751 mmHg 50%
    19:00 +29°C° 0 mm 2 mps 751 mmHg 55%
    20:00 +28°C° 0 mm 2 mps 751 mmHg 59%
    21:00 +27°C° 0 mm 2 mps 751 mmHg 62%
    22:00 +25°C° 0 mm 1 mps 751 mmHg 65%
    23:00 +25°C° 0.1 mm 1 mps 751 mmHg 67%

    28 August, Wednesday

    Time Temperature Precipitation Wind Pressure Humidity
    00:00 +24°C° 0.1 mm 1 mps 751 mmHg 69%
    01:00 +24°C° 0.1 mm 1 mps 751 mmHg 71%
    02:00 +23°C° 0 mm 1 mps 751 mmHg 72%
    03:00 +23°C° 0 mm 1 mps 751 mmHg 73%
    04:00 +23°C° 0 mm 1 mps 751 mmHg 75%
    05:00 +23°C° 0 mm 1 mps 750 mmHg 73%
    06:00 +24°C° 0 mm 1 mps 750 mmHg 71%
    07:00 +25°C° 0 mm 1 mps 750 mmHg 69%
    08:00 +27°C° 0 mm 1 mps 750 mmHg 63%
    09:00 +29°C° 0 mm 1 mps 750 mmHg 56%
    10:00 +31°C° 0 mm 1 mps 750 mmHg 49%
    11:00 +32°C° 0 mm 1 mps 750 mmHg 46%
    12:00 +33°C° 0 mm 1 mps 750 mmHg 42%
    13:00 +34°C° 0 mm 1 mps 750 mmHg 38%
    14:00 +34°C° 0 mm 1 mps 749 mmHg 37%
    15:00 +34°C° 0 mm 1 mps 749 mmHg 36%
    16:00 +34°C° 0 mm 1 mps 749 mmHg 36%
    17:00 +32°C° 0 mm 1 mps 748 mmHg 40%
    18:00 +30°C° 0 mm 1 mps 748 mmHg 44%
    19:00 +29°C° 0 mm 1 mps 748 mmHg 48%
    20:00 +28°C° 0 mm 1 mps 748 mmHg 51%
    21:00 +27°C° 0 mm 1 mps 748 mmHg 55%
    22:00 +26°C° 0 mm 1 mps 748 mmHg 58%
    23:00 +26°C° 0 mm 1 mps 748 mmHg 60%

    29 August, Thursday

    Time Temperature Precipitation Wind Pressure Humidity
    00:00 +25°C° 0 mm 2 mps 748 mmHg 61%
    01:00 +25°C° 0 mm 2 mps 748 mmHg 62%
    02:00 +24°C° 0 mm 2 mps 748 mmHg 63%
    03:00 +24°C° 0 mm 2 mps 748 mmHg 64%
    04:00 +24°C° 0 mm 2 mps 748 mmHg 64%
    05:00 +24°C° 0 mm 2 mps 748 mmHg 62%
    06:00 +25°C° 0 mm 2 mps 748 mmHg 61%
    07:00 +25°C° 0 mm 2 mps 748 mmHg 59%
    08:00 +27°C° 0 mm 2 mps 749 mmHg 53%
    09:00 +29°C° 0 mm 2 mps 749 mmHg 48%
    10:00 +31°C° 0 mm 2 mps 749 mmHg 42%
    11:00 +32°C° 0 mm 2 mps 749 mmHg 40%
    12:00 +32°C° 0 mm 2 mps 749 mmHg 37%
    13:00 +34°C° 0 mm 2 mps 750 mmHg 34%
    14:00 +34°C° 0 mm 2 mps 750 mmHg 35%
    15:00 +34°C° 0 mm 2 mps 750 mmHg 35%
    16:00 +34°C° 0 mm 3 mps 750 mmHg 36%
    17:00 +31°C° 0.2 mm 3 mps 750 mmHg 45%
    18:00 +28°C° 0.2 mm 4 mps 750 mmHg 55%
    19:00 +26°C° 0.2 mm 5 mps 750 mmHg 64%
    20:00 +25°C° 0.5 mm 4 mps 751 mmHg 70%
    21:00 +24°C° 0.5 mm 2 mps 751 mmHg 75%
    22:00 +23°C° 0.5 mm 1 mps 752 mmHg 81%
    23:00 +23°C° 0.6 mm 1 mps 752 mmHg 82%

    30 August, Friday

    Time Temperature Precipitation Wind Pressure Humidity
    00:00 +22°C° 0.6 mm 1 mps 752 mmHg 83%
    01:00 +22°C° 0.6 mm 1 mps 752 mmHg 83%
    02:00 +21°C° 0.4 mm 2 mps 752 mmHg 85%
    03:00 +21°C° 0.4 mm 2 mps 752 mmHg 87%
    04:00 +20°C° 0.4 mm 2 mps 752 mmHg 88%
    05:00 +20°C° 0.3 mm 3 mps 753 mmHg 89%
    06:00 +20°C° 0.3 mm 3 mps 753 mmHg 90%
    07:00 +20°C° 0.3 mm 4 mps 753 mmHg 91%
    08:00 +21°C° 0.2 mm 4 mps 754 mmHg 87%
    09:00 +21°C° 0.2 mm 4 mps 754 mmHg 83%
    10:00 +22°C° 0.2 mm 4 mps 754 mmHg 79%
    11:00 +24°C° 0 mm 3 mps 754 mmHg 74%
    12:00 +25°C° 0 mm 3 mps 754 mmHg 69%
    13:00 +26°C° 0 mm 3 mps 754 mmHg 64%
    14:00 +26°C° 0 mm 3 mps 754 mmHg 62%
    15:00 +26°C° 0 mm 3 mps 754 mmHg 61%
    16:00 +26°C° 0 mm 3 mps 754 mmHg 59%
    17:00 +25°C° 0 mm 3 mps 754 mmHg 62%
    18:00 +24°C° 0 mm 2 mps 754 mmHg 65%
    19:00 +23°C° 0 mm 2 mps 754 mmHg 68%
    20:00 +21°C° 0 mm 2 mps 754 mmHg 70%
    21:00 +20°C° 0 mm 2 mps 754 mmHg 72%
    22:00 +21°C° 0 mm 1 mps 754 mmHg 74%
    23:00 +20°C° 0 mm 1 mps 754 mmHg 75%
    Show more